This is the latest recevied weather packets stored in our database for station/object KC4BAM. If no packets are shown the sender has not sent any weather packets the latest 1 day(s).
| Time | Temp. | Humidity | Pressure | Rain* | Wind** | Luminosity | Snow |
|---|---|---|---|---|---|---|---|
| 1778011616 | 23.33° C | 58% | 998.7 hPa | 0 mm | 2.24 m/s, 221° | 147 W/m² | - |
| 1778011313 | 23.33° C | 58% | 998.9 hPa | 0 mm | 2.24 m/s, 208° | 184 W/m² | - |
| 1778011008 | 22.78° C | 58% | 998.9 hPa | 0 mm | 4.47 m/s, 229° | 417 W/m² | - |
| 1778010706 | 23.33° C | 58% | 998.9 hPa | 0 mm | 2.24 m/s, 225° | 351 W/m² | - |
| 1778010403 | 22.78° C | 58% | 999.2 hPa | 0 mm | 3.58 m/s, 206° | 250 W/m² | - |
| 1778010099 | 22.78° C | 58% | 999.3 hPa | 0 mm | 3.13 m/s, 223° | 246 W/m² | - |
| 1778009796 | 22.78° C | 57% | 999.3 hPa | 0 mm | 3.13 m/s, 179° | 182 W/m² | - |
| 1778009493 | 22.78° C | 58% | 999.4 hPa | 0 mm | 2.68 m/s, 169° | 725 W/m² | - |
| 1778009192 | 23.33° C | 56% | 999.4 hPa | 0 mm | 3.13 m/s, 219° | 278 W/m² | - |
| 1778008889 | 22.78° C | 56% | 999.5 hPa | 0 mm | 4.92 m/s, 240° | 252 W/m² | - |
| 1778008587 | 23.89° C | 54% | 999.3 hPa | 0 mm | 2.68 m/s, 195° | 253 W/m² | - |
| 1778008285 | 23.33° C | 56% | 999.6 hPa | 0 mm | 2.24 m/s, 212° | 423 W/m² | - |
| 1778007980 | 23.33° C | 56% | 999.4 hPa | 0 mm | 4.47 m/s, 234° | 731 W/m² | - |
| 1778007675 | 23.33° C | 56% | 999.6 hPa | 0 mm | 5.36 m/s, 243° | 273 W/m² | - |
| 1778007373 | 23.33° C | 56% | 999.9 hPa | 0 mm | 4.02 m/s, 189° | 657 W/m² | - |
| 1778007069 | 23.33° C | 57% | 999.9 hPa | 0 mm | 4.47 m/s, 236° | 673 W/m² | - |
| 1778006765 | 23.33° C | 57% | 1000 hPa | 0 mm | 4.02 m/s, 249° | 716 W/m² | - |
| 1778006462 | 22.78° C | 59% | 1000.1 hPa | 0 mm | 3.58 m/s, 180° | 680 W/m² | - |
| 1778006159 | 22.78° C | 61% | 1000 hPa | 0 mm | 4.02 m/s, 223° | 693 W/m² | - |
| 1778005857 | 22.22° C | 63% | 999.9 hPa | 0 mm | 1.79 m/s, 223° | 723 W/m² | - |
| 1778005553 | 22.22° C | 63% | 999.8 hPa | 0 mm | 2.68 m/s, 255° | 560 W/m² | - |
| 1778005249 | 21.67° C | 65% | 999.9 hPa | 0 mm | 1.79 m/s, 226° | 764 W/m² | - |
| 1778004946 | 21.11° C | 66% | 1000 hPa | 0 mm | 2.68 m/s, 184° | 463 W/m² | - |
| 1778004644 | 20.56° C | 68% | 1000.1 hPa | 0 mm | 1.79 m/s, 226° | 747 W/m² | - |
| 1778004339 | 20.56° C | 70% | 1000.1 hPa | 0 mm | 3.13 m/s, 250° | 324 W/m² | - |
* Rain latest hour (hover to see other rain measurements)
** Current wind speed in m/s (hover to see current wind gust speed)